Frenchville, ME

4:12 PM EDT on June 25, 2017 (GMT -0400)
Northern Aroostook Regional

Weather History for KFVE - September, 2013

Change the Weather History Date:

Tuesday, September 17, 2013

  Actual Average Record
Temperature  
Mean Temperature 47 °F 53 °F  
Max Temperature 61 °F 63 °F 81 °F (2015)
Min Temperature 33 °F 44 °F 33 °F (2013)
Degree Days  
Heating Degree Days 18    
Month to date heating degree days 162  
Since 1 July heating degree days 325  
Cooling Degree Days 0    
Month to date cooling degree days 4  
Year to date cooling degree days 139  
Moisture  
Dew Point 36 °F    
Average Humidity 67    
Maximum Humidity 92    
Minimum Humidity 39    
Precipitation  
Precipitation 0.00 in 0.12 in 2.25 in (1999)
Month to date precipitation 2.74 2.07  
Year to date precipitation 27.25 24.13  
Sea Level Pressure  
Sea Level Pressure 30.23 in    
Wind  
Wind Speed 9 mph (West)    
Max Wind Speed 18 mph    
Max Gust Speed 23 mph    
Visibility 10 miles    
Events      
T = Trace of Precipitation, MM = Missing Value Source: NWS Daily Summary

Daily Weather History Graph

Daily Weather History Graph

Search for Another Location

Airport or City:

Trip Planner

Search our weather history database for the weather conditions in past years. The results will help you decide how hot, cold, wet, or windy it might be!

Date:

Astronomy

Sep. 17, 2013 Rise Set
Actual Time 6:13 AM EDT 6:40 PM EDT
Civil Twilight 5:42 AM EDT 7:11 PM EDT
Nautical Twilight 5:06 AM EDT 7:47 PM EDT
Astronomical Twilight 4:28 AM EDT 8:25 PM EDT
Moon 5:29 PM EDT (9/17) 3:58 AM EDT (9/17)
Length of Visible Light 13h 28m
Length of Day
12h 27m
Waxing Gibbous, 96% of the Moon is Illuminated
Sep 17
Waxing Gibbous
Sep 19
Full
Sep 26
Last Quarter
Oct 4
New
Oct 11
First Quarter

Hourly Weather History & Observations

Time (EDT) Temp. Windchill Dew Point Humidity Pressure Visibility Wind Dir Wind Speed Gust Speed Precip Events Conditions
12:53 AM 37.0 °F 29.8 °F 33.1 °F 86% 30.20 in 10.0 mi NW 10.4 mph - N/A   Clear
1:53 AM 35.1 °F 29.3 °F 32.0 °F 89% 30.22 in 10.0 mi WNW 6.9 mph - N/A   Clear
2:53 AM 35.1 °F 31.0 °F 32.0 °F 89% 30.23 in 10.0 mi WNW 4.6 mph - N/A   Clear
3:53 AM 35.1 °F 29.3 °F 32.0 °F 89% 30.24 in 10.0 mi WNW 6.9 mph - N/A   Partly Cloudy
4:53 AM 35.1 °F 32.2 °F 33.1 °F 92% 30.25 in 10.0 mi WNW 3.5 mph - N/A   Clear
5:53 AM 34.0 °F 27.2 °F 32.0 °F 92% 30.27 in 10.0 mi West 8.1 mph - N/A   Clear
6:53 AM 35.1 °F - 33.1 °F 92% 30.28 in 10.0 mi Calm Calm - N/A   Clear
7:53 AM 41.0 °F - 37.0 °F 86% 30.29 in 10.0 mi Calm Calm - N/A   Clear
8:53 AM 46.0 °F 41.0 °F 37.9 °F 73% 30.30 in 10.0 mi WNW 10.4 mph - N/A   Clear
9:53 AM 50.0 °F - 37.9 °F 63% 30.32 in 10.0 mi WNW 11.5 mph - N/A   Clear
10:53 AM 54.0 °F - 39.0 °F 57% 30.30 in 10.0 mi NNW 9.2 mph - N/A   Clear
11:53 AM 55.9 °F - 39.0 °F 53% 30.29 in 10.0 mi West 5.8 mph - N/A   Partly Cloudy
12:53 PM 57.9 °F - 37.0 °F 46% 30.27 in 10.0 mi WNW 15.0 mph 21.9 mph N/A   Clear
1:53 PM 60.1 °F - 37.9 °F 44% 30.26 in 10.0 mi WNW 10.4 mph - N/A   Clear
2:53 PM 60.1 °F - 36.0 °F 41% 30.24 in 10.0 mi WNW 16.1 mph 20.7 mph N/A   Clear
3:53 PM 60.1 °F - 35.1 °F 39% 30.21 in 10.0 mi WNW 10.4 mph 19.6 mph N/A   Clear
4:53 PM 60.1 °F - 35.1 °F 39% 30.19 in 10.0 mi West 11.5 mph 19.6 mph N/A   Clear
5:53 PM 57.9 °F - 37.0 °F 46% 30.18 in 10.0 mi West 8.1 mph - N/A   Clear
6:53 PM 54.0 °F - 37.9 °F 55% 30.18 in 10.0 mi WSW 8.1 mph - N/A   Partly Cloudy
7:53 PM 53.1 °F - 39.9 °F 61% 30.18 in 10.0 mi WSW 9.2 mph - N/A   Clear
8:53 PM 51.1 °F - 39.0 °F 63% 30.17 in 10.0 mi SW 8.1 mph - N/A   Clear
9:53 PM 50.0 °F - 39.0 °F 66% 30.17 in 10.0 mi West 12.7 mph - N/A   Clear
10:53 PM 48.9 °F - 39.0 °F 69% 30.16 in 10.0 mi WSW 10.4 mph 21.9 mph N/A   Clear
11:53 PM 48.0 °F - 39.0 °F 71% 30.15 in 10.0 mi West 12.7 mph - N/A   Clear